Regional Weather Roundup
Issued by NWS

Home | Current Version | Previous Version | Graphics & Text | Print | Product List | Glossary On
Versions: 1 2 3 4 5 6 7 8 9 10 11 12 13 14 15 16 17 18 19 20 21 22 23 24 25 26 27
000
ASUS45 KBOU 220607
RWRCO

WEATHER ROUNDUP FOR COLORADO
NATIONAL WEATHER SERVICE DENVER/BOULDER CO
1200 AM MDT SUN OCT 22 2017

NOTE: "FAIR" INDICATES FEW OR NO CLOUDS BELOW 12000 FEET WITH NO
SIGNIFICANT WEATHER AND/OR OBSTRUCTIONS TO VISIBILITY.

COZ001>005-013-030-031-220700-
...NORTHWEST COLORADO...

CITY           SKY/WX    TMP DP  RH WIND       PRES   REMARKS
CRAIG          FAIR      27  21  78 CALM      30.32R
HAYDEN         FAIR      30  22  72 SE8       30.33R WCI  22
MEEKER         FAIR      28  24  85 E6        30.34R WCI  22
RABBIT EARS PA CLOUDY    19  18  93 W16G24    30.28S WCI   5
STEAMBOAT SPGS CLOUDY    31  22  70 S5        30.32R WCI  26
WALDEN         NOT AVBL
$$

COZ006>008-011-220700-
...WEST CENTRAL VALLEYS...

CITY           SKY/WX    TMP DP  RH WIND       PRES   REMARKS
GRAND JUNCTION FAIR      38  13  35 E6        30.32R
MONTROSE       FAIR      34  17  50 SE8       30.38R WCI  27
EAGLE          FAIR      28  22  78 SE3       30.39R
RIFLE          FAIR      32  25  75 CALM      30.36R
DELTA          FAIR      36   9  32 NE6       30.37R
NUCLA          FAIR      34   5  29 E10       30.41R WCI  26
$$

COZ017>023-064>068-220700-
...SOUTHWEST COLORADO...

CITY           SKY/WX    TMP DP  RH WIND       PRES   REMARKS
DURANGO        FAIR      29   5  36 CALM      30.32R
CORTEZ         FAIR      28  12  51 E8        30.36R WCI  20
PAGOSA SPRINGS FAIR      31   3  30 NE5       30.36R WCI  26
TELLURIDE      FAIR      29  14  52 SE7       30.42R WCI  22
WOLF CREEK PAS FAIR      21   0  39 S8        30.46R WCI  12
$$

COZ009-010-012-014-032>034-037-058>063-220700-
...CENTRAL COLORADO...

CITY           SKY/WX    TMP DP  RH WIND       PRES   REMARKS
ASPEN          FAIR      24  20  84 SW6       30.37R WCI  17
BUENA VISTA    FAIR      29  12  49 NW10      30.28S WCI  20
COPPER MTN     FAIR      19  12  73 MISG      30.33R
BERTHOUD PASS  FAIR      14   3  62 NW46G62   30.21S WCI -10
COTTONWOOD PAS FAIR      34  12  40 NW8       30.29R WCI  27
GUNNISON       FAIR      24  15  68 CALM      30.38R
KREMMLING      FAIR      27  19  74 CALM      30.34R
LEADVILLE      FAIR      21  10  62 N6        30.31R WCI  13
MONARCH PASS   FAIR      19   5  53 W43       30.42R WCI  -2
SALIDA         FAIR      38   9  29 N7        30.35S
SUNLIGHT       FAIR      19  12  73 SW9G20    30.42R WCI   9
WILKERSON PASS FAIR      23   5  46 W6        30.31F WCI  16
$$

COZ069>075-220700-
...SAN LUIS VALLEY/SANGRE DE CRISTO MOUNTAINS...

CITY           SKY/WX    TMP DP  RH WIND       PRES   REMARKS
ALAMOSA        FAIR      25   8  48 CALM      30.32R
DEL NORTE      FAIR      24   4  41 W7        30.33R WCI  16
LA VETA PASS   FAIR      30   1  29 SW24G33   30.40R WCI  16
SAGUACHE       FAIR      28  12  50 NW8       30.33S WCI  20
$$

COZ035-036-038>040-220700-
...NORTHERN COLORADO FRONT RANGE...

CITY           SKY/WX    TMP DP  RH WIND       PRES   REMARKS
DENVER INTL AP FAIR      40  12  32 SW13      30.13F
DMNS CITY PARK   N/A     39  13  33 S6        30.14F
AURORA         CLEAR     33  13  45 S10       30.14F WCI  24
FRONT RANGE AP FAIR      32  18  55 S9        30.14F WCI  24
ERIE MUNI ARPT FAIR      35  18  49 CALM      30.18S
BOULDER MUN AP FAIR      39  14  35 S5        30.12S
CENTENNIAL     FAIR      37  10  32 S9        30.15F
BROOMFIELD     FAIR      46  14  27 W17G26    30.14S
FORT COLLINS   FAIR      32  19  58 CALM      30.12F
LONGMONT       FAIR      35  21  58 NW3       30.13F
$$

COZ041-046-047-076>085-087-088-220700-
...PIKES PEAK/PALMER DIVIDE AND SOUTHERN FOOTHILLS...

CITY           SKY/WX    TMP DP  RH WIND       PRES   REMARKS
COLO. SPRINGS  FAIR      32  11  41 NE5       30.19F WCI  27
A. F. ACADEMY  FAIR      37   6  27 NE6       30.18F
SCHRIEVER AFB  FAIR      35   8  32 NW3       30.19F
CHEYENNE MTN   FAIR      38   4  24 CALM      30.13F
ELLICOTT         N/A    N/A N/A N/A NW3       30.18S
FALCON         FAIR      29   9  42 W9        30.21S WCI  20
FORT CARSON    FAIR      32  11  41 NW6       30.17S WCI  26
LIMON          FAIR      21  13  71 N6        30.17S WCI  13
MONUMENT HILL  FAIR      27  14  59 S9        30.20F WCI  17
CANON CITY     FAIR      39  10  30 CALM      30.19S
WALSENBURG     FAIR      39  12  33 CALM      30.21S
TRINIDAD       FAIR      36  26  67 W10       30.22R
$$

COZ042>045-048>051-090-091-220700-
...NORTHEAST COLORADO...

CITY           SKY/WX    TMP DP  RH WIND       PRES   REMARKS
GREELEY ARPT   FAIR      30  23  75 SE3       30.13F
AKRON          FAIR      31  16  54 W8        30.11F WCI  23
BURLINGTON     FAIR      32  18  56 W5        30.15R WCI  27
WRAY           FAIR      34  21  60 W7        30.11S WCI  28
YUMA           NOT AVBL
STERLING       NOT AVBL
HOLYOKE        FAIR      46  19  34 W10G17    30.10R
FORT MORGAN    FAIR      31  16  52 SW7       30.13R WCI  25
$$

COZ086-089-092>099-220700-
...SOUTHEAST COLORADO...

CITY           SKY/WX    TMP DP  RH WIND       PRES   REMARKS
PUEBLO         FAIR      32  15  49 W5        30.19R WCI  27
LA JUNTA       FAIR      37  17  44 W7        30.19R
LAMAR          FAIR      33  14  45 S6        30.16R WCI  28
SPRINGFIELD      N/A     32  18  56 NW9       30.19R WCI  24
$$




USA.gov is the U.S. government's official web portal to all federal, state and local government web resources and services.